• In Lithuania
  • List of Countries
  • For 7 days
  • Water Temperature
  • Satellite Maps
  • Weather Map
  • Weather Widgets
  • user-avatar
    Login

    Hourly Weather Stefania

    Today, 18 July, Wednesday

    Time Temperature Precipitation Wind Pressure Humidity
    00:00 +19°C° 0.2 mm 3 mps 746 mmHg 97%
    01:00 +19°C° 0 mm 2 mps 745 mmHg 98%
    02:00 +19°C° 0 mm 2 mps 745 mmHg 98%
    03:00 +19°C° 0 mm 3 mps 745 mmHg 98%
    04:00 +19°C° 0 mm 3 mps 745 mmHg 98%
    05:00 +20°C° 0.2 mm 3 mps 745 mmHg 96%
    06:00 +20°C° 0.2 mm 3 mps 745 mmHg 95%
    07:00 +21°C° 0.2 mm 3 mps 746 mmHg 93%
    08:00 +22°C° 0.3 mm 3 mps 746 mmHg 91%
    09:00 +22°C° 0.3 mm 3 mps 746 mmHg 90%
    10:00 +24°C° 0.3 mm 3 mps 746 mmHg 88%
    11:00 +25°C° 0.9 mm 4 mps 746 mmHg 84%
    12:00 +26°C° 0.9 mm 5 mps 746 mmHg 81%
    13:00 +26°C° 0.9 mm 5 mps 747 mmHg 78%
    14:00 +26°C° 1 mm 6 mps 747 mmHg 79%
    15:00 +26°C° 1 mm 6 mps 747 mmHg 79%
    16:00 +26°C° 1 mm 7 mps 747 mmHg 79%
    17:00 +24°C° 0.5 mm 6 mps 748 mmHg 83%
    18:00 +23°C° 0.5 mm 6 mps 748 mmHg 86%
    19:00 +22°C° 0.5 mm 5 mps 748 mmHg 89%
    20:00 +22°C° 0.1 mm 5 mps 748 mmHg 91%
    21:00 +21°C° 0.1 mm 5 mps 749 mmHg 93%
    22:00 +20°C° 0.1 mm 5 mps 749 mmHg 95%
    23:00 +20°C° 0.3 mm 5 mps 749 mmHg 95%

    Tomorrow, 19 July, Thursday

    Time Temperature Precipitation Wind Pressure Humidity
    00:00 +20°C° 0.3 mm 5 mps 749 mmHg 95%
    01:00 +20°C° 0.3 mm 5 mps 749 mmHg 95%
    02:00 +20°C° 0.2 mm 5 mps 749 mmHg 95%
    03:00 +20°C° 0.2 mm 4 mps 749 mmHg 95%
    04:00 +19°C° 0.2 mm 4 mps 749 mmHg 95%
    05:00 +20°C° 0.2 mm 4 mps 749 mmHg 95%
    06:00 +20°C° 0.2 mm 4 mps 749 mmHg 94%
    07:00 +20°C° 0.2 mm 4 mps 750 mmHg 93%
    08:00 +20°C° 0.2 mm 4 mps 750 mmHg 92%
    09:00 +21°C° 0.2 mm 4 mps 750 mmHg 91%
    10:00 +21°C° 0.2 mm 4 mps 750 mmHg 90%
    11:00 +22°C° 0.5 mm 4 mps 750 mmHg 88%
    12:00 +22°C° 0.5 mm 4 mps 750 mmHg 86%
    13:00 +22°C° 0.5 mm 4 mps 750 mmHg 84%
    14:00 +23°C° 0.4 mm 4 mps 750 mmHg 83%
    15:00 +23°C° 0.4 mm 5 mps 750 mmHg 82%
    16:00 +23°C° 0.4 mm 5 mps 750 mmHg 81%
    17:00 +23°C° 0.1 mm 4 mps 750 mmHg 83%
    18:00 +22°C° 0.1 mm 4 mps 750 mmHg 85%
    19:00 +22°C° 0.1 mm 4 mps 751 mmHg 87%
    20:00 +21°C° 0 mm 4 mps 751 mmHg 88%
    21:00 +20°C° 0 mm 4 mps 751 mmHg 90%
    22:00 +20°C° 0 mm 4 mps 751 mmHg 92%
    23:00 +20°C° 0 mm 4 mps 751 mmHg 93%

    Day after tomorrow, 20 July, Friday

    Time Temperature Precipitation Wind Pressure Humidity
    00:00 +19°C° 0 mm 4 mps 751 mmHg 94%
    01:00 +19°C° 0 mm 4 mps 751 mmHg 95%
    02:00 +18°C° 0 mm 4 mps 751 mmHg 95%
    03:00 +18°C° 0 mm 3 mps 751 mmHg 96%
    04:00 +17°C° 0 mm 3 mps 751 mmHg 97%
    05:00 +18°C° 0 mm 3 mps 751 mmHg 93%
    06:00 +19°C° 0 mm 3 mps 751 mmHg 90%
    07:00 +20°C° 0 mm 3 mps 751 mmHg 87%
    08:00 +21°C° 0.3 mm 4 mps 751 mmHg 83%
    09:00 +22°C° 0.3 mm 4 mps 751 mmHg 78%
    10:00 +23°C° 0.3 mm 4 mps 751 mmHg 74%
    11:00 +25°C° 0.8 mm 5 mps 751 mmHg 71%
    12:00 +26°C° 0.8 mm 5 mps 751 mmHg 67%
    13:00 +27°C° 0.8 mm 5 mps 750 mmHg 64%
    14:00 +27°C° 0.4 mm 5 mps 750 mmHg 64%
    15:00 +27°C° 0.4 mm 5 mps 750 mmHg 64%
    16:00 +27°C° 0.4 mm 5 mps 750 mmHg 64%
    17:00 +26°C° 0.1 mm 4 mps 750 mmHg 68%
    18:00 +25°C° 0.1 mm 3 mps 750 mmHg 73%
    19:00 +24°C° 0.1 mm 3 mps 750 mmHg 78%
    20:00 +22°C° 0 mm 3 mps 750 mmHg 81%
    21:00 +21°C° 0 mm 3 mps 750 mmHg 84%
    22:00 +19°C° 0 mm 3 mps 750 mmHg 87%
    23:00 +19°C° 0 mm 3 mps 750 mmHg 88%

    21 July, Saturday

    Time Temperature Precipitation Wind Pressure Humidity
    00:00 +18°C° 0 mm 2 mps 750 mmHg 88%
    01:00 +17°C° 0 mm 2 mps 750 mmHg 89%
    02:00 +17°C° 0 mm 2 mps 750 mmHg 89%
    03:00 +17°C° 0 mm 2 mps 750 mmHg 88%
    04:00 +16°C° 0 mm 1 mps 750 mmHg 88%
    05:00 +18°C° 0 mm 1 mps 750 mmHg 83%
    06:00 +19°C° 0 mm 1 mps 750 mmHg 78%
    07:00 +21°C° 0 mm 1 mps 750 mmHg 73%
    08:00 +21°C° 0 mm 2 mps 750 mmHg 67%
    09:00 +23°C° 0 mm 2 mps 750 mmHg 60%
    10:00 +24°C° 0 mm 2 mps 750 mmHg 54%
    11:00 +25°C° 0 mm 2 mps 750 mmHg 52%
    12:00 +26°C° 0 mm 3 mps 749 mmHg 49%
    13:00 +26°C° 0 mm 3 mps 749 mmHg 46%
    14:00 +27°C° 0 mm 3 mps 749 mmHg 47%
    15:00 +27°C° 0 mm 3 mps 749 mmHg 47%
    16:00 +27°C° 0 mm 3 mps 749 mmHg 47%
    17:00 +25°C° 0 mm 2 mps 749 mmHg 52%
    18:00 +24°C° 0 mm 2 mps 749 mmHg 58%
    19:00 +23°C° 0 mm 1 mps 749 mmHg 63%
    20:00 +22°C° 0 mm 1 mps 749 mmHg 63%
    21:00 +21°C° 0 mm 1 mps 749 mmHg 64%
    22:00 +20°C° 0 mm 1 mps 749 mmHg 64%
    23:00 +20°C° 0 mm 1 mps 749 mmHg 68%

    22 July, Sunday

    Time Temperature Precipitation Wind Pressure Humidity
    00:00 +19°C° 0 mm 1 mps 749 mmHg 71%
    01:00 +19°C° 0 mm 1 mps 749 mmHg 74%
    02:00 +18°C° 0 mm 1 mps 749 mmHg 77%
    03:00 +18°C° 0 mm 1 mps 749 mmHg 81%
    04:00 +16°C° 0 mm 1 mps 749 mmHg 84%
    05:00 +18°C° 0 mm 2 mps 749 mmHg 81%
    06:00 +19°C° 0 mm 2 mps 749 mmHg 79%
    07:00 +20°C° 0 mm 2 mps 749 mmHg 76%
    08:00 +21°C° 0 mm 2 mps 749 mmHg 71%
    09:00 +24°C° 0 mm 2 mps 749 mmHg 66%
    10:00 +25°C° 0 mm 2 mps 749 mmHg 61%
    11:00 +26°C° 0 mm 3 mps 749 mmHg 57%
    12:00 +26°C° 0 mm 3 mps 749 mmHg 54%
    13:00 +27°C° 0 mm 3 mps 749 mmHg 50%
    14:00 +27°C° 0 mm 3 mps 749 mmHg 50%
    15:00 +27°C° 0 mm 3 mps 749 mmHg 50%
    16:00 +27°C° 0 mm 3 mps 749 mmHg 50%
    17:00 +26°C° 0 mm 3 mps 749 mmHg 56%
    18:00 +25°C° 0 mm 3 mps 749 mmHg 61%
    19:00 +24°C° 0 mm 2 mps 749 mmHg 66%
    20:00 +23°C° 0 mm 2 mps 750 mmHg 68%
    21:00 +21°C° 0 mm 3 mps 750 mmHg 70%
    22:00 +20°C° 0 mm 3 mps 750 mmHg 72%
    23:00 +19°C° 0 mm 3 mps 751 mmHg 75%

    23 July, Monday

    Time Temperature Precipitation Wind Pressure Humidity
    00:00 +19°C° 0 mm 3 mps 751 mmHg 79%
    01:00 +18°C° 0 mm 3 mps 751 mmHg 82%
    02:00 +17°C° 0 mm 2 mps 751 mmHg 84%
    03:00 +17°C° 0 mm 2 mps 751 mmHg 86%
    04:00 +16°C° 0 mm 2 mps 751 mmHg 87%
    05:00 +17°C° 0 mm 2 mps 752 mmHg 84%
    06:00 +19°C° 0 mm 3 mps 752 mmHg 80%
    07:00 +20°C° 0 mm 3 mps 752 mmHg 76%
    08:00 +21°C° 0 mm 3 mps 752 mmHg 70%
    09:00 +22°C° 0 mm 4 mps 752 mmHg 65%
    10:00 +25°C° 0 mm 4 mps 752 mmHg 59%
    11:00 +25°C° 0 mm 4 mps 752 mmHg 57%
    12:00 +26°C° 0 mm 4 mps 752 mmHg 55%
    13:00 +26°C° 0 mm 5 mps 752 mmHg 53%
    14:00 +26°C° 0 mm 5 mps 752 mmHg 53%
    15:00 +26°C° 0 mm 5 mps 752 mmHg 54%
    16:00 +26°C° 0 mm 5 mps 751 mmHg 54%
    17:00 +25°C° 0 mm 4 mps 752 mmHg 59%
    18:00 +24°C° 0 mm 3 mps 752 mmHg 64%
    19:00 +22°C° 0 mm 3 mps 752 mmHg 69%
    20:00 +21°C° 0 mm 3 mps 752 mmHg 72%
    21:00 +19°C° 0 mm 3 mps 752 mmHg 75%
    22:00 +18°C° 0 mm 3 mps 752 mmHg 78%
    23:00 +17°C° 0 mm 3 mps 752 mmHg 82%
    Show more